Location: *
(13.0000°N, 151.6000°E)
Time: 14:52:24
(UTC+00:00)

Meteor 2-13 Rocket - Pass Details

Date: 01 April 2020
Orbit: 936 x 957 km, 82.5° (Epoch: 03 June)

Event Time Altitude Azimuth Distance (km) Brightness Sun altitude
Rises 19:08:09 0° 187° (S) 3,593 7.3 -10.8°
Reaches altitude 10° 19:10:38 10° 189° (S) 2,647 6.6 -10.2°
Maximum altitude 19:16:40 76° 274° (W) 965 4.4 -8.7°
Drops below altitude 10° 19:22:41 10° 360° (N) 2,641 6.9 -7.3°
Sets 19:25:11 0° 2° (N) 3,585 7.6 -6.7°
